Belle Chasse — WDG2912 — position and weather

sailwx.info

Track history (hours):
 
Tides and Currents Weather Stations Pressure Air Temp Water Temp Dewpoint Dewpoint Depression Visibility Wind Speed Wind Dir Waves Ship Positions

Belle Chasse

More information available from US FCC via Universal Licensing System and Coast Guard Vessel Documentation Center.

Last reported at 2014-Sep-19 21:19 UTC. Time now 2014-Sep-21 06:02 UTC.
Position N 29°23' W 094°46'.

Length 26 m; draft 3 m.

Type: Towing. MMSI: 367520550.

Date/timePositionNaut miles runAvg speedWind from/ knotsBaromVisibWave heightAir tempDewpointWater temp
2014-Sep-19 21:19N 29°23' W 094°46'6 5.6
2014-Sep-19 20:13N 29°19' W 094°52'4 5.4
2014-Sep-19 19:33N 29°17' W 094°55'11 2.0
2014-Sep-19 14:19N 29°24' W 094°45'3 0.4
2014-Sep-19 06:12N 29°22' W 094°48'4 5.5
2014-Sep-19 05:32N 29°23' W 094°52'2 1.7
2014-Sep-19 04:18N 29°22' W 094°54'0 0.0
2014-Sep-18 17:21N 29°22' W 094°54'1 1.7
2014-Sep-18 16:29N 29°23' W 094°53'1 0.0
2014-Sep-16 15:19N 29°23' W 094°52'  
Track history (hours):
 
Tides and Currents Weather Stations Pressure Air Temp Water Temp Dewpoint Dewpoint Depression Visibility Wind Speed Wind Dir Waves Ship Positions

Belle Chasse

More information available from US FCC via Universal Licensing System and Coast Guard Vessel Documentation Center.

Last reported at 2014-Sep-19 21:19 UTC. Time now 2014-Sep-21 06:02 UTC.
Position N 29°23' W 094°46'.

Length 26 m; draft 3 m.

Type: Towing. MMSI: 367520550.

Date/timePositionNaut miles runAvg speedWind from/ knotsBaromVisibWave heightAir tempDewpointWater temp
2014-Sep-19 21:19N 29°23' W 094°46'6 5.6
2014-Sep-19 20:13N 29°19' W 094°52'4 5.4
2014-Sep-19 19:33N 29°17' W 094°55'11 2.0
2014-Sep-19 14:19N 29°24' W 094°45'3 0.4
2014-Sep-19 06:12N 29°22' W 094°48'4 5.5
2014-Sep-19 05:32N 29°23' W 094°52'2 1.7
2014-Sep-19 04:18N 29°22' W 094°54'0 0.0
2014-Sep-18 17:21N 29°22' W 094°54'1 1.7
2014-Sep-18 16:29N 29°23' W 094°53'1 0.0
2014-Sep-16 15:19N 29°23' W 094°52'  

Dump ship's entire track history